Dalhart, TX

7:27 PM CDT on October 18, 2017 (GMT -0500)
Dalhart Municipal

Weather History for KDHT - March, 2012

Change the Weather History Date:

Thursday, March 15, 2012

  Actual Average Record
Temperature  
Mean Temperature 57 °F 45 °F  
Max Temperature 81 °F 61 °F 84 °F (2013)
Min Temperature 32 °F 29 °F 11 °F (1962)
Degree Days  
Heating Degree Days 8 20  
Month to date heating degree days 241 328  
Since 1 July heating degree days 3672 3971  
Cooling Degree Days 0 0  
Month to date cooling degree days 0 0  
Year to date cooling degree days 0 0  
Growing Degree Days 6 (Base 50)    
Moisture  
Dew Point 14 °F    
Average Humidity 25    
Maximum Humidity 44    
Minimum Humidity 6    
Precipitation  
Precipitation 0.00 in 0.04 in 1.53 in (1998)
Month to date precipitation 0.08 0.48  
Year to date precipitation 0.15 1.40  
Snow  
Snow 0.00 in 0.10 in 1.00 in (1991)
Month to date snowfall 0.0 1.9  
Since 1 July snowfall 8.3 15.4  
Snow Depth 0.00 in    
Sea Level Pressure  
Sea Level Pressure 29.95 in    
Wind  
Wind Speed 8 mph (NW)    
Max Wind Speed 22 mph    
Max Gust Speed 26 mph    
Visibility 10 miles    
Events      
T = Trace of Precipitation, MM = Missing Value Source: NWS Daily Summary

Daily Weather History Graph

Daily Weather History Graph

Search for Another Location

Airport or City:

Trip Planner

Search our weather history database for the weather conditions in past years. The results will help you decide how hot, cold, wet, or windy it might be!

Date:

Astronomy

Mar. 15, 2012 Rise Set
Actual Time 8:00 AM CDT 7:58 PM CDT
Civil Twilight 7:34 AM CDT 8:23 PM CDT
Nautical Twilight 7:04 AM CDT 8:53 PM CDT
Astronomical Twilight 6:34 AM CDT 9:23 PM CDT
Moon 3:19 AM CDT (3/15) 1:28 PM CDT (3/15)
Length of Visible Light 12h 49m
Length of Day
11h 57m
Last Quarter, 43% of the Moon is Illuminated
Mar 15
Last Quarter
Mar 22
New
Mar 30
First Quarter
Apr 6
Full
Apr 13
Last Quarter

Hourly Weather History & Observations

Time (CDT) Temp. Windchill Dew Point Humidity Pressure Visibility Wind Dir Wind Speed Gust Speed Precip Events Conditions
12:53 AM 52.0 °F - 14.0 °F 22% 29.88 in 10.0 mi West 10.4 mph - N/A   Clear
1:53 AM 46.9 °F - 15.1 °F 28% 29.89 in 10.0 mi West 11.5 mph - N/A   Clear
2:53 AM 48.0 °F - 14.0 °F 26% 29.89 in 10.0 mi West 13.8 mph - N/A   Clear
3:53 AM 46.0 °F 39.9 °F 12.0 °F 25% 29.89 in 10.0 mi West 13.8 mph - N/A   Clear
4:53 AM 39.0 °F 32.8 °F 16.0 °F 39% 29.91 in 10.0 mi West 9.2 mph - N/A   Clear
5:53 AM 36.0 °F 29.0 °F 15.1 °F 43% 29.94 in 10.0 mi West 9.2 mph - N/A   Clear
6:53 AM 39.0 °F - 12.9 °F 34% 29.95 in 10.0 mi Calm Calm - N/A   Clear
7:53 AM 34.0 °F 28.8 °F 14.0 °F 44% 30.01 in 10.0 mi West 5.8 mph - N/A   Clear
8:53 AM 42.1 °F 36.6 °F 14.0 °F 32% 30.03 in 10.0 mi WNW 9.2 mph - N/A   Clear
9:53 AM 57.0 °F - 14.0 °F 18% 30.01 in 10.0 mi NW 11.5 mph - N/A   Clear
10:53 AM 68.0 °F - 9.0 °F 10% 29.99 in 10.0 mi NW 16.1 mph - N/A   Clear
11:53 AM 72.0 °F - 9.0 °F 9% 29.99 in 10.0 mi North 16.1 mph - N/A   Clear
12:53 PM 75.0 °F - 12.0 °F 9% 29.98 in 10.0 mi NNE 15.0 mph - N/A   Clear
1:53 PM 75.9 °F - 12.9 °F 9% 29.98 in 10.0 mi Variable 3.5 mph - N/A   Clear
2:53 PM 77.0 °F - 10.9 °F 8% 29.94 in 10.0 mi East 6.9 mph - N/A   Clear
3:53 PM 79.0 °F - 12.0 °F 8% 29.93 in 10.0 mi Variable 4.6 mph - N/A   Clear
4:53 PM 79.0 °F - 9.0 °F 7% 29.94 in 10.0 mi Calm Calm - N/A   Clear
5:53 PM 79.0 °F - 7.0 °F 6% 29.93 in 10.0 mi Variable 5.8 mph - N/A   Clear
6:53 PM 78.1 °F - 7.0 °F 7% 29.92 in 10.0 mi WNW 4.6 mph - N/A   Clear
7:53 PM 72.0 °F - 16.0 °F 12% 29.95 in 10.0 mi Calm Calm - N/A   Clear
8:53 PM 61.0 °F - 24.1 °F 24% 29.97 in 10.0 mi East 3.5 mph - N/A   Clear
9:53 PM 57.0 °F - 21.9 °F 26% 29.94 in 10.0 mi East 5.8 mph - N/A   Clear
10:53 PM 53.1 °F - 21.0 °F 29% 29.93 in 10.0 mi ENE 6.9 mph - N/A   Clear
11:53 PM 52.0 °F - 21.9 °F 31% 29.92 in 10.0 mi East 8.1 mph - N/A   Clear